Starlink 30268

operational
NORAD ID: 57531 Int'l Des: 2023-115 Owner: SPXS Country: US Constellation: starlink
LEOCIRCULAR

Starlink 30268について

説明を読み込み中...

リアルタイム位置

3D地球を読み込み中...

次回通過

高度履歴

Altitude vs Time

uPlot chart will show altitude changes over time

軌道要素

1 57531U 23115L 25352.64480339 -.00000762 00000-0 -41312-4 0 9999
2 57531 43.0034 85.0798 0001486 268.5552 91.5120 15.02528905130128
Epoch: Dec 18, 2025 • Age: 13 hours

現在のステータス

高度 558.4 km
速度 7.58 km/s
衛星直下点 7.47°N, 62.12°W
打ち上げ日 Aug 8, 2023
運用期間 2.3 years
タイプ internet

技術仕様

分類 Payload
質量 730.00 kg
乾燥質量 700.00 kg
総質量 730.00 kg
長さ 0.30 m
直径 4.10 m
スパン 29.00 m
形状 Box + pan
製造者 SPXS
バスタイプ Starlink V2M
フェーズステータス In Orbit
所有者/国 SPXS/US

大規模コンステレーション

Loading constellations...